Monroe, LA

3:51 PM CDT on March 28, 2017 (GMT -0500)
Monroe Regional

Weather History for KMLU - July, 2013

Change the Weather History Date:

Thursday, July 18, 2013

  Actual Average Record
Temperature  
Mean Temperature 83 °F 83 °F  
Max Temperature 95 °F 94 °F 103 °F (1980)
Min Temperature 71 °F 72 °F 64 °F (1967)
Degree Days  
Heating Degree Days 0 0  
Month to date heating degree days 0 0  
Since 1 June heating degree days 0 0  
Since 1 July heating degree days 0 0  
Cooling Degree Days 18 18  
Month to date cooling degree days 281 324  
Year to date cooling degree days 1075 1225  
Since 1 June cooling degree days 725 790  
Growing Degree Days 32 (Base 50)    
Moisture  
Dew Point 72 °F    
Average Humidity 73    
Maximum Humidity 100    
Minimum Humidity 46    
Precipitation  
Precipitation 0.17 in 0.11 in 3.50 in (1954)
Month to date precipitation 0.21 2.31  
Year to date precipitation 30.67 31.04  
Snow  
Snow 0.00 in - - ()
Month to date snowfall 0.0  
Since 1 June snowfall 0.0  
Since 1 July snowfall 0.0  
Snow Depth 0.00 in    
Sea Level Pressure  
Sea Level Pressure 30.11 in    
Wind  
Wind Speed 2 mph (NNE)    
Max Wind Speed 24 mph    
Max Gust Speed 36 mph    
Visibility 9 miles    
Events Rain    
T = Trace of Precipitation, MM = Missing Value Source: NWS Daily Summary

Daily Weather History Graph

Daily Weather History Graph

Search for Another Location

Airport or City:

Trip Planner

Search our weather history database for the weather conditions in past years. The results will help you decide how hot, cold, wet, or windy it might be!

Date:

Astronomy

Jul. 18, 2013 Rise Set
Actual Time 6:13 AM CDT 8:14 PM CDT
Civil Twilight 5:45 AM CDT 8:42 PM CDT
Nautical Twilight 5:12 AM CDT 9:16 PM CDT
Astronomical Twilight 4:36 AM CDT 9:51 PM CDT
Moon 4:13 PM CDT (7/18) 2:01 AM CDT (7/18)
Length of Visible Light 14h 56m
Length of Day
14h 01m
Waxing Gibbous, 77% of the Moon is Illuminated
Jul 18
Waxing Gibbous
Jul 22
Full
Jul 29
Last Quarter
Aug 6
New
Aug 14
First Quarter

Hourly Weather History & Observations

Time (CDT) Temp. Heat Index Dew Point Humidity Pressure Visibility Wind Dir Wind Speed Gust Speed Precip Events Conditions
12:53 AM 75.0 °F - 71.1 °F 87% 30.17 in 10.0 mi Calm Calm - N/A   Clear
1:53 AM 75.0 °F - 70.0 °F 84% 30.15 in 10.0 mi Calm Calm - N/A   Clear
2:53 AM 73.9 °F - 70.0 °F 87% 30.14 in 10.0 mi Calm Calm - N/A   Clear
3:53 AM 73.9 °F - 70.0 °F 87% 30.13 in 10.0 mi Calm Calm - N/A   Clear
4:53 AM 73.9 °F - 72.0 °F 93% 30.14 in 10.0 mi Calm Calm - N/A   Clear
5:53 AM 73.0 °F - 72.0 °F 96% 30.14 in 10.0 mi Calm Calm - N/A   Clear
6:53 AM 75.0 °F - 71.1 °F 87% 30.14 in 10.0 mi Calm Calm - N/A   Clear
7:53 AM 79.0 °F - 73.0 °F 82% 30.16 in 10.0 mi NNW 3.5 mph - N/A   Clear
8:53 AM 82.9 °F 89.4 °F 73.9 °F 74% 30.17 in 10.0 mi NW 4.6 mph - N/A   Mostly Cloudy
9:53 AM 86.0 °F 93.0 °F 73.0 °F 65% 30.16 in 10.0 mi Calm Calm - N/A   Clear
10:53 AM 88.0 °F 97.5 °F 75.0 °F 65% 30.15 in 10.0 mi NNW 3.5 mph - N/A   Clear
11:53 AM 88.0 °F 97.5 °F 75.0 °F 65% 30.14 in 10.0 mi NNW 3.5 mph - N/A   Clear
12:53 PM 91.9 °F 99.5 °F 72.0 °F 52% 30.12 in 10.0 mi Calm Calm - N/A   Clear
1:53 PM 93.0 °F 100.1 °F 71.1 °F 49% 30.08 in 10.0 mi Calm Calm - N/A   Partly Cloudy
2:53 PM 93.0 °F 99.0 °F 70.0 °F 47% 30.05 in 10.0 mi Variable 4.6 mph - N/A   Clear
3:53 PM 93.9 °F 100.8 °F 71.1 °F 47% 30.03 in 10.0 mi SSE 3.5 mph - N/A   Clear
4:53 PM 88.0 °F 93.8 °F 71.1 °F 57% 30.03 in 10.0 mi South 6.9 mph - N/A   Clear
5:44 PM 77.0 °F - 69.8 °F 78% 30.07 in 10.0 mi NE 24.2 mph 33.4 mph N/A   Overcast
5:53 PM 75.9 °F - 70.0 °F 82% 30.07 in 10.0 mi NE 16.1 mph 31.1 mph 0.00 in Rain Light Rain
6:42 PM 73.4 °F - 71.6 °F 94% 30.10 in 2.5 mi Variable 5.8 mph - 0.03 in Rain Rain
6:47 PM 73.4 °F - 71.6 °F 94% 30.11 in 1.2 mi ESE 3.5 mph - 0.06 in Rain Heavy Rain
6:53 PM 73.0 °F - 71.1 °F 93% 30.10 in 1.0 mi Calm Calm - 0.15 in Rain Heavy Rain
7:01 PM 73.4 °F - 71.6 °F 94% 30.10 in 3.0 mi East 3.5 mph - 0.00 in Rain Light Rain
7:53 PM 73.9 °F - 72.0 °F 93% 30.11 in 10.0 mi WSW 4.6 mph - 0.01 in Rain Light Rain
8:53 PM 73.0 °F - 71.1 °F 93% 30.10 in 10.0 mi SSW 3.5 mph - 0.01 in   Scattered Clouds
9:53 PM 73.0 °F - 71.1 °F 93% 30.09 in 10.0 mi Calm Calm - N/A   Clear
10:53 PM 72.0 °F - 71.1 °F 97% 30.07 in 9.0 mi Calm Calm - N/A   Clear
11:53 PM 72.0 °F - 71.1 °F 97% 30.07 in 8.0 mi Calm Calm - N/A   Clear